Flag for U.S.A. Weather past 2 weeks in Waterbury, Connecticut, U.S.A.

Now
48 °F

Light rain. Mostly cloudy.


Feels Like: 45 °F
Forecast: 39 / 56 °F
Wind: 7 mph from Northwest

Location: Oxford

Current Time: Dec 25, 2014 at 9:27:09 AM

Latest Report: Dec 25, 2014 at 7:50 AM


Visibility: 10 mi

Pressure: 29.57 "Hg

Humidity: 82%

Dew point: 43 °F

Location of WaterburyLocation

Historic Weather in Waterbury — Graph

°F

Waterbury temperature yesterday

Maximum temperature yesterday: 57 °F (at 9:15 PM)
Minimum temperature yesterday: 41 °F (at 3:35 AM)
Average temperature yesterday: 46 °F

Past Weeks' High & Low Weather Summary

 TemperatureHumidityPressure
High57 °F (Dec 24, 9:15 PM)100% (Dec 11, 8:04 AM)30.34 "Hg (Dec 11, 8:04 AM)
Low25 °F (Dec 20, 5:15 AM)44% (Dec 19, 4:52 PM)29.49 "Hg (Dec 25, 4:15 AM)
Average35 °F71%29.96 "Hg
* Reported Dec 10 7:50 AM — Dec 25 7:50 AM, Waterbury, Weather by CustomWeather, © 2014

Note: Actual official high and low records may vary slightly from our data, if they occured in-between our weather recording intervals... More about our weather records

Advertising

Waterbury weather history for previous 24 hours

 ConditionsComfort  
Time TempWeatherWind HumidityBarometerVisibility
7:50 AM
Dec 25
48 °FLight rain. Mostly cloudy.7 mph82%29.57 "Hg10 mi
5:50 AM57 °FLight rain. Fog.6 mph88%29.53 "Hg2 mi
5:35 AM57 °FOvercast.7 mph88%29.52 "Hg5 mi
5:15 AM57 °FLow clouds.6 mph88%29.52 "Hg3 mi
4:55 AM57 °FLow clouds.5 mph88%29.51 "Hg1 mi
4:35 AM57 °FLow clouds.6 mph88%29.49 "Hg4 mi
4:15 AM57 °FLow clouds.7 mph88%29.49 "Hg7 mi
3:55 AM57 °FLow clouds.7 mph88%29.50 "Hg10 mi
3:35 AM57 °FLow clouds.6 mph88%29.51 "Hg5 mi
3:15 AM57 °FLow clouds.8 mph88%29.52 "Hg4 mi
2:55 AM55 °FLow clouds.8 mph94%29.52 "Hg1 mi
2:35 AM55 °FLow clouds.10 mph94%29.53 "Hg1 mi
2:15 AM55 °FLow clouds.12 mph94%29.52 "Hg1 mi
1:55 AM57 °FLow clouds.13 mph88%29.52 "Hg1 mi
1:35 AM55 °FLow clouds.9 mph94%29.52 "Hg1 mi
1:15 AM55 °FLow clouds.8 mph88%29.52 "Hg1 mi
12:55 AM55 °FLow clouds.9 mph94%29.53 "Hg1 mi
12:35 AM55 °FLow clouds.7 mph94%29.54 "Hg0 mi
12:15 AM55 °FLow clouds.7 mph94%29.54 "Hg1 mi
11:55 PM
Dec 24
57 °FLow clouds.7 mph88%29.56 "Hg0 mi
11:35 PM57 °FLow clouds.10 mph88%29.57 "Hg0 mi
11:15 PM57 °FLow clouds.8 mph88%29.56 "Hg0 mi
10:35 PM57 °FLow clouds.9 mph88%29.58 "Hg0 mi
10:15 PM57 °FLow clouds.7 mph88%29.59 "Hg0 mi
9:55 PM57 °FLow clouds.7 mph88%29.58 "Hg7 mi
9:35 PM57 °FLow clouds.10 mph88%29.59 "Hg6 mi
9:15 PM57 °FLow clouds.8 mph88%29.61 "Hg4 mi
8:52 PM55 °FFog.9 mph94%29.62 "Hg1 mi
7:52 PM54 °FFog.9 mph88%29.62 "Hg0 mi
6:52 PM46 °FLight rain. Fog.6 mph87%29.68 "Hg1 mi
5:52 PM46 °FLight rain. Fog.7 mph82%29.70 "Hg1 mi
2:52 PM45 °FLight rain. Fog.5 mph76%29.79 "Hg1 mi
1:52 PM43 °FLight rain. Fog.5 mph81%29.81 "Hg1 mi
12:50 PM43 °FLight rain. Fog.9 mph81%29.84 "Hg1 mi
11:50 AM43 °FLight rain. Fog.6 mph81%29.90 "Hg1 mi
10:50 AM43 °FFog.6 mph81%29.96 "Hg0 mi
9:50 AM43 °FFog.7 mph76%29.99 "Hg1 mi
Weather by CustomWeather, © 2014

See weather overviewHow to use our weather pages